This demonstration page uses our WeatherBlox Daily Observations layout. Learn more.

Left ArrowRight Arrow

38.89511, -77.03637

Hourly Observations for June 22, 2022

Temp ( °F °C ) Dew Point ( °F °C ) Humidity (%) Winds ( mph kmh ) Pressure ( in mb ) Visibility ( mi km ) Precip ( " mm )
12:52 am 00:52 Clear 72 22.2 60 15.6 66 66 S 7 11 30.04 1017 10 16 0.00 0.00
1:52 am 01:52 Partly Cloudy 72 22.2 60 15.6 66 66 S 12 19 30.01 1016 10 16 0.00 0.00
2:52 am 02:52 Mostly Cloudy 71 21.7 60 15.6 68 68 SSW 5 7 30.00 1016 10 16 0.00 0.00
3:52 am 03:52 Mostly Clear 71 21.7 60 15.6 68 68 SSW 5 7 29.98 1015 10 16 0.00 0.00
4:52 am 04:52 Mostly Clear 71 21.7 59 15 66 66 SSW 5 7 29.97 1015 10 16 0.00 0.00
5:52 am 05:52 Cloudy 71 21.7 59 15 66 66 SSW 5 7 29.96 1015 10 16 0.00 0.00
6:52 am 06:52 Mostly Cloudy 72 22.2 60 15.6 66 66 SSW 5 7 29.95 1014 10 16 0.00 0.00
7:52 am 07:52 Mostly Cloudy 73 22.8 61 16.1 66 66 SSW 5 7 29.95 1014 10 16 0.00 0.00
8:52 am 08:52 Mostly Cloudy 75 23.9 62 16.7 64 64 SSE 5 7 29.94 1014 10 16 0.00 0.00
9:52 am 09:52 Mostly Cloudy 77 25 64 17.8 64 64 SSE 6 9 29.92 1013 10 16 0.00 0.00
10:52 am 10:52 Mostly Cloudy 81 27.2 63 17.2 54 54 Calm 29.92 1013 10 16 0.00 0.00
11:52 am 11:52 Mostly Cloudy 88 31.1 64 17.8 45 45 N 8 13 29.91 1013 10 16 0.00 0.00
12:52 pm 12:52 Mostly Cloudy 90 32.2 64 17.8 42 42 Calm 29.89 1012 10 16 0.00 0.00
1:36 pm 13:36 Mostly Cloudy with Nearby Thunderstorms 90 32.2 65 18.3 44 44 NE 9 15 29.89 1012 10 16 0.00 0.00
1:46 pm 13:46 Mostly Cloudy with Thunderstorms 88 31 66 19 49 49 ENE 7 11 29.89 1012 10 16 0.00 0.00
1:52 pm 13:52 Mostly Cloudy with Thunderstorms 85 29.4 69 20.6 59 59 NE 13 20 29.88 1012 5 8 0.02 0.51
2:23 pm 14:23 Mostly Cloudy 86 30 69 20.6 57 57 E 8 13 29.87 1011 10 16 0.00 0.00
2:52 pm 14:52 Mostly Cloudy 85 29.4 71 21.7 63 63 WNW 6 9 29.86 1011 10 16 0.00 0.00
3:52 pm 15:52 Cloudy 85 29.4 68 20 57 57 ENE 7 11 29.86 1011 10 16 0.00 0.00
4:52 pm 16:52 Mostly Cloudy with Light Rain 80 26.7 69 20.6 69 69 NE 12 19 29.87 1012 10 16 0.02 0.51
5:33 pm 17:33 Cloudy with Thunderstorms 79 26.1 68 20 69 69 E 9 15 29.83 1010 7 11 0.00 0.00
5:52 pm 17:52 Cloudy with Thunderstorms 79 26.1 68 20 69 69 ENE 6 9 29.84 1011 10 16 0.00 0.00
6:02 pm 18:02 Cloudy 79 26.1 69 20.6 72 72 ENE 8 13 29.84 1010 10 16 0.00 0.00
6:52 pm 18:52 Cloudy 78 25.6 68 20 71 71 E 15 24 29.85 1011 10 16 0.00 0.00
7:52 pm 19:52 Cloudy 76 24.4 68 20 77 77 E 8 13 29.87 1011 10 16 0.00 0.00
8:21 pm 20:21 Cloudy with Thunderstorms 76 24.4 68 20 77 77 ENE 12 19 29.89 1012 10 16 0.00 0.00
8:52 pm 20:52 Cloudy with Thunderstorms 74 23.3 69 20.6 85 85 E 7 11 29.88 1012 3 5 0.06 1.52
8:54 pm 20:54 Cloudy with Thunderstorms 74 23.3 69 20.6 85 85 E 6 9 29.89 1012 3 4 0.03 0.76
9:27 pm 21:27 Cloudy with Thunderstorms 73 22.8 69 20.6 87 87 SE 10 17 29.89 1012 6 10 0.41 10.41
9:41 pm 21:41 Cloudy with Thunderstorms 73 22.8 69 20.6 87 87 SSE 7 11 29.90 1012 3 5 0.45 11.43
9:46 pm 21:46 Cloudy with Thunderstorms 73 23 70 21 89 89 SSE 9 15 29.89 1012 2 3 0.50 12.70
9:52 pm 21:52 Cloudy with Thunderstorms 72 22.2 69 20.6 91 91 SSE 9 15 29.90 1012 2 2 0.66 16.76
9:58 pm 21:58 Cloudy with Thunderstorms 72 22.2 69 20.6 91 91 SE 7 11 29.91 1013 3 5 0.02 0.51
10:20 pm 22:20 Cloudy with Rain 72 22.2 68 20 87 87 SE 6 9 29.91 1013 6 10 0.07 1.78
10:52 pm 22:52 Cloudy with Light Rain 72 22.2 68 20 87 87 SE 5 7 29.90 1013 9 14 0.09 2.29
11:10 pm 23:10 Cloudy with Thunderstorms 71 21.7 67 19.4 87 87 ESE 5 7 29.91 1013 5 8 0.05 1.27
11:30 pm 23:30 Cloudy with Rain 71 21.7 68 20 90 90 E 5 7 29.91 1013 5 8 0.12 3.05
11:52 pm 23:52 Cloudy with Light Rain 72 22.2 68 20 87 87 Calm 29.91 1013 10 16 0.14 3.56

Powered by AerisWeather